This is the latest recevied weather packets stored in our database for station/object KB1WCR. If no packets are shown the sender has not sent any weather packets the latest 10 day(s).
| Time | Temp. | Humidity | Pressure | Rain* | Wind** | Luminosity | Snow |
|---|---|---|---|---|---|---|---|
| 1787604087 | 25.56° C | 66% | 1012.1 hPa | 0 mm | - | 132 W/m² | - |
| 1787603786 | 25.56° C | 67% | 1012.3 hPa | 0 mm | - | 260 W/m² | - |
| 1787603477 | 26.11° C | 67% | 1011.9 hPa | 0 mm | - | 148 W/m² | - |
| 1787603172 | 26.67° C | 66% | 1012 hPa | 0 mm | - | 122 W/m² | - |
| 1787602869 | 26.67° C | 68% | 1012 hPa | 0 mm | - | 365 W/m² | - |
| 1787602569 | 26.67° C | 67% | 1011.9 hPa | 0 mm | - | 175 W/m² | - |
| 1787602264 | 25.56° C | 69% | 1012.1 hPa | 0 mm | - | 201 W/m² | - |
| 1787601963 | 25° C | 73% | 1012 hPa | 0 mm | - | 289 W/m² | - |
| 1787601657 | 24.44° C | 75% | 1011.8 hPa | 0 mm | - | 143 W/m² | - |
| 1787601353 | 25° C | 71% | 1011.9 hPa | 0 mm | - | 109 W/m² | - |
| 1787601052 | 25.56° C | 70% | 1011.8 hPa | 0 mm | - | 99 W/m² | - |
| 1787600746 | 26.11° C | 67% | 1012 hPa | 0 mm | - | 166 W/m² | - |
| 1787600442 | 26.67° C | 66% | 1011.7 hPa | 0 mm | - | 368 W/m² | - |
| 1787600138 | 26.11° C | 68% | 1011.8 hPa | 0 mm | - | 521 W/m² | - |
| 1787599835 | 26.67° C | 68% | 1011.9 hPa | 0 mm | - | 198 W/m² | - |
| 1787599530 | 27.22° C | 69% | 1011.9 hPa | 0 mm | - | 638 W/m² | - |
| 1787599227 | 26.67° C | 71% | 1011.8 hPa | 0 mm | - | 503 W/m² | - |
| 1787598922 | 26.67° C | 66% | 1011.9 hPa | 0 mm | - | 176 W/m² | - |
| 1787598618 | 26.11° C | 65% | 1011.8 hPa | 0 mm | - | 219 W/m² | - |
| 1787598317 | 26.67° C | 63% | 1011.7 hPa | 0 mm | - | 225 W/m² | - |
| 1787598014 | 27.78° C | 60% | 1011.8 hPa | 0 mm | - | 210 W/m² | - |
| 1787597714 | 27.78° C | 59% | 1012.1 hPa | 0 mm | - | 240 W/m² | - |
| 1787597412 | 27.78° C | 61% | 1012 hPa | 0 mm | - | 630 W/m² | - |
| 1787597107 | 27.78° C | 58% | 1012.1 hPa | 0 mm | - | 621 W/m² | - |
| 1787596804 | 26.67° C | 60% | 1012 hPa | 0 mm | - | 398 W/m² | - |
* Rain latest hour (hover to see other rain measurements)
** Current wind speed in m/s (hover to see current wind gust speed)